TIANWANG 1B (TW-1B)
1 40927U 15051C   19074.52305760  .00009453  00000-0  15759-3 0  9994
2 40927  97.1528 120.4362 0009496  28.6635 107.4919 15.52149334195241
TIANWANG 1A (TW-1A)
1 40928U 15051D   19074.53772374  .00002848  00000-0  72868-4 0  9991
2 40928  97.1572 107.9279 0013233  62.7324  95.0082 15.40153323194529
LAPAN A2
1 40931U 15052B   19074.38300269  .00000686  00000-0  64762-5 0  9992
2 40931   6.0012  16.1514 0013644 247.9036 111.9642 14.76599948187153
LQSAT
1 40958U 15057A   19074.46703520  .00000008  00000-0  89736-5 0  9998
2 40958  97.9084 146.1906 0017809 182.3141 177.7987 14.73069432184780
CHUBUSAT 2
1 41338U 16012B   19073.94234063 +.00000320 +00000-0 +18192-4 0  9990
2 41338 031.0040 033.2485 0013905 234.7024 125.2311 15.00106072168523
CHUBUSAT 3
1 41339U 16012C   19073.98965005  .00000279  00000-0  14908-4 0  9996
2 41339  31.0106  31.1641 0013506 242.9398 116.9863 15.00284426168529
OUFTI-1
1 41458U 16025C   19074.42083033  .00001091  00000-0  60323-4 0  9999
2 41458  98.1050 156.4399 0166219 317.7072  41.1430 15.05481462158245
E-STAR-2
1 41459U 16025D   19074.48189628  .00000993  00000-0  55661-4 0  9992
2 41459  98.1044 156.2204 0167288 318.6851  40.1830 15.05149805158227
AAUSAT 4
1 41460U 16025E   19074.37298624  .00001320  00000-0  70987-4 0  9992
2 41460  98.0987 157.1197 0158351 312.4666  46.3302 15.06890320158310
NUSAT 1
1 41557U 16033B   19074.50655706  .00001273  00000-0  50851-4 0  9996
2 41557  97.4199 162.5761 0012306 274.4780  85.5052 15.26942767155561
BEESAT 4
1 41619U 16040W   19073.72057278 +.00001191 +00000-0 +53814-4 0  9997
2 41619 097.3793 137.6903 0011491 009.7670 350.3788 15.22841986139255
PRATHAM
1 41783U 16059A   19073.71076851 +.00000018 +00000-0 +12930-4 0  9997
2 41783 098.0801 135.3532 0032722 327.7224 032.1975 14.62977155131511
ALSAT 1N
1 41789U 16059G   19074.39614951  .00000050  00000-0  18582-4 0  9992
2 41789  98.0823 137.8130 0027335 316.7195  43.1861 14.64221869131704
NAYIF 1
1 42017U 17008BX  19073.72517542 +.00001352 +00000-0 +56664-4 0  9995
2 42017 097.4137 141.7751 0007448 137.4112 222.7705 15.25219078115298
LILACSAT-1
1 42725U 98067ME  19074.12878795  .00399986  85909-4  53012-3 0  9991
2 42725  51.6286  33.9746 0005279 134.9446 315.8908 16.06129099103366
MAX VALIER SAT
1 42778U 17036P   19073.79838678  .00000788  00000-0  37695-4 0  9998
2 42778  97.3669 133.5249 0012141 193.3181 166.7737 15.21812470 95655
